Location: *
(33.8649°S, 62.1526°E)
Time: 04:36:05
(UTC+00:00)

Cosmos 2360 Rocket - Pass Details

Date: 17 January 2021
Orbit: 832 x 846 km, 71.0° (Epoch: 27 February)

Event Time Altitude Azimuth Distance (km) Brightness Sun altitude
Rises 21:27:57 0° 193° (SSW) 3,418 6.1 -31.8°
Reaches altitude 10° 21:30:34 10° 185° (S) 2,475 5.3 -31.6°
Maximum altitude 21:35:53 40° 116° (ESE) 1,223 3.3 -31.1°
Enters shadow 21:37:17 34° 83° (E) 1,344 3.3 -31.0°
